Temperature
9 8 8 8 9 9 8 9 9 10 10 10 9 9 10 11 11 11 13 14 15 16 16 16 16 17 17 17 17 17 17 17 17 17 17 17 17 17 17 16 16 15 15 15
8 8 9 9 9 9 9 9 9 9 9 10 8 8 9 9 10 12 13 13 14 15 15 16 16 16 16 17 17 17 17 17 17 17 17 17 17 17 17 17 17 16 15 15
9 9 9 10 9 9 9 9 9 9 8 8 7 9 9 9 9 10 11 11 12 13 14 15 16 16 16 16 16 16 17 17 17 17 17 16 16 16 16 16 16 16 16 15
8 8 9 9 9 9 9 9 9 9 8 7 7 7 8 8 7 8 10 10 11 12 13 14 14 15 15 16 16 16 16 16 16 16 16 16 16 15 16 16 16 16 16 16
7 8 8 9 9 9 8 8 7 7 7 6 6 7 8 7 9 9 8 10 11 12 13 13 14 14 14 15 15 15 16 16 16 16 16 16 16 16 16 16 16 16 16 16
7 8 8 8 8 8 7 7 5 4 5 6 6 5 7 7 9 8 7 10 11 12 13 13 13 14 14 14 14 14 15 15 15 16 16 16 16 16 15 15 15 15 15 15
7 7 8 8 7 7 8 7 6 6 5 5 5 5 6 7 7 7 7 9 11 12 12 12 12 12 13 13 13 14 14 14 15 15 15 15 15 15 15 15 15 15 15 15
6 6 7 8 8 7 7 7 7 7 7 5 5 4 6 7 7 8 9 10 11 11 11 11 11 11 11 11 12 12 13 13 14 14 14 15 15 15 15 15 14 14 15 15
6 6 7 7 7 7 6 5 6 4 4 4 5 5 5 8 9 9 9 10 11 11 11 10 10 10 10 10 10 11 11 12 12 13 13 14 14 14 14 14 14 14 14 14
6 5 6 7 7 6 6 5 4 4 5 7 6 5 6 8 9 8 7 9 10 10 10 9 9 9 9 9 9 10 10 10 11 12 12 13 13 13 13 13 13 13 13 13
6 5 6 6 6 6 5 5 4 3 4 5 6 7 7 7 8 7 7 9 9 9 8 8 8 8 8 8 8 8 9 9 10 11 11 12 12 13 13 13 12 12 12 12
6 4 5 5 6 6 6 5 4 4 3 3 3 6 8 7 7 7 8 9 9 8 7 7 7 7 7 7 7 8 8 8 9 10 10 11 11 12 12 12 11 11 11 10
6 4 3 5 5 5 5 5 4 4 3 2 3 6 7 7 7 8 8 8 8 7 6 6 6 6 6 6 7 7 7 8 8 9 9 10 10 11 11 10 10 9 9 9
6 5 4 5 5 4 4 4 4 4 3 2 3 5 7 7 7 8 8 8 6 5 4 4 5 5 5 5 6 6 6 7 7 8 8 9 9 9 9 9 8 8 8 8
7 5 4 4 5 5 5 5 4 4 3 4 4 4 6 7 7 8 8 6 5 4 3 3 3 4 4 5 5 5 5 6 6 6 7 7 8 8 7 7 7 7 7 7
6 5 4 4 5 4 4 4 4 4 5 5 5 6 7 8 8 8 7 4 3 2 2 2 2 3 3 3 3 4 4 4 5 5 5 5 6 6 6 6 6 6 5 5
5 5 4 4 5 5 4 5 5 5 5 6 6 7 7 7 7 7 5 3 2 1 1 1 1 2 2 2 2 2 3 3 3 3 3 4 4 4 4 4 4 3 3 3
4 4 4 5 5 5 7 7 6 6 6 6 6 7 7 7 7 6 4 3 2 1 0 0 1 1 1 1 1 1 2 2 2 2 2 2 2 2 2 2 1 1 1 0
5 5 5 5 6 5 7 7 6 6 7 7 7 7 7 7 6 4 4 3 1 1 0 0 0 0 0 0 0 0 1 1 0 0 0 0 0 1 0 0 -0 -0 -0 -0
5 5 5 6 6 6 8 9 8 8 8 9 7 7 7 6 5 5 4 3 2 1 1 0 0 0 0 0 -0 0 -0 -0 -0 -1 -1 -0 -0 -0 -0 -0 -0 -1 -0 -0
5 5 5 6 6 6 7 8 8 8 9 9 8 7 7 5 5 5 4 3 2 1 1 1 1 1 0 0 -0 0 -0 -0 -0 -0 -0 -0 -0 -0 -0 -0 -0 -0 -0 -0
6 6 6 6 6 6 8 7 8 9 9 9 8 7 6 6 5 5 4 3 3 2 2 2 2 1 1 1 1 1 0 0 0 0 0 0 0 -0 -0 -0 -0 -1 -1 -1
5 6 6 6 7 8 9 9 10 10 9 9 8 7 6 6 5 5 4 4 3 3 3 2 2 2 2 1 1 1 1 1 1 1 1 0 0 -0 -0 -0 -1 -1 -1 -1
4 5 5 5 5 7 9 9 10 10 9 9 8 7 6 6 5 5 4 4 3 3 3 3 3 3 2 2 2 1 1 1 1 1 0 0 -0 -0 -1 -1 -1 -2 -2 -2
5 5 5 5 6 7 9 9 9 9 9 9 8 8 7 6 5 5 5 4 4 3 3 3 3 3 2 2 2 1 1 0 1 0 0 -0 -1 -1 -1 -1 -2 -2 -2 -3
4 4 5 5 6 6 7 8 8 8 9 8 8 8 7 6 5 5 5 4 4 4 3 3 3 3 2 2 1 1 0 -0 -0 0 -0 -1 -1 -2 -2 -2 -2 -3 -3 -3
Wind_Speed
7 6 8 10 8 5 8 7 4 3 2 4 6 9 13 11 9 11 11 12 12 12 10 8 9 9 8 8 10 11 11 12 11 10 13 13 15 13 12 12 15 18 18 19
7 7 7 8 8 7 6 5 2 2 4 4 6 10 12 11 9 9 10 11 11 11 11 9 8 8 8 9 9 10 11 11 12 12 13 10 11 10 13 11 11 17 18 19
6 5 10 10 9 7 4 4 3 1 5 4 7 9 8 6 4 6 7 8 9 10 12 11 10 8 8 8 9 9 11 11 12 12 8 5 5 4 6 9 12 13 17 19
5 3 8 10 7 6 4 2 5 3 3 4 5 6 9 6 9 7 7 7 8 8 8 8 9 9 8 8 7 8 9 10 10 10 10 12 12 13 13 13 13 13 16 18
4 4 7 8 6 7 5 5 6 4 4 2 2 3 10 5 5 6 8 9 9 8 7 7 7 8 8 7 6 5 6 8 9 9 12 13 15 14 10 9 11 13 13 15
4 3 3 4 5 7 8 7 6 5 4 2 3 5 8 4 4 8 9 10 10 9 9 9 9 9 8 8 7 6 5 7 8 9 11 13 16 15 11 12 13 12 9 11
4 4 3 4 7 4 5 5 3 3 3 5 2 4 9 6 6 6 9 10 10 9 10 12 13 13 12 12 10 8 7 8 7 8 9 12 15 15 16 15 15 13 10 11
5 3 1 2 4 6 4 5 5 4 3 4 2 6 8 7 8 7 6 7 8 10 10 10 11 11 10 11 10 9 9 9 8 7 9 10 11 10 10 13 12 14 14 15
5 3 3 4 4 7 6 4 4 6 3 3 5 7 9 5 2 3 6 8 10 11 11 11 11 11 11 11 11 9 9 9 9 8 8 8 8 9 10 11 11 10 10 9
6 6 3 2 6 6 5 7 5 5 4 4 6 5 5 6 4 7 9 11 12 12 13 13 12 12 11 11 11 10 9 9 9 8 7 6 7 8 8 8 10 10 9 9
4 6 3 3 3 5 5 4 5 4 3 4 4 6 6 6 4 7 10 11 12 12 11 11 12 12 12 11 11 10 9 9 8 7 7 6 5 5 5 6 8 7 7 10
4 5 3 0 2 4 4 6 6 5 4 3 2 8 6 6 7 7 10 11 10 9 10 11 12 12 12 11 11 10 10 9 8 7 6 5 3 2 3 4 5 7 9 10
5 6 4 2 3 0 2 5 5 5 5 5 4 8 4 3 9 10 10 11 9 10 11 11 11 11 11 11 11 10 9 8 8 6 5 3 1 1 3 5 7 9 10 11
5 4 5 6 4 6 4 6 7 6 5 5 8 10 13 14 14 14 12 9 8 9 10 11 11 11 11 10 10 11 10 9 7 6 5 3 2 3 5 7 9 10 11 12
5 4 3 3 2 4 5 6 9 9 9 8 8 8 15 15 14 13 9 7 9 10 11 11 12 11 11 11 11 10 10 9 7 7 6 6 6 7 8 10 11 12 12 13
4 4 2 2 2 4 6 9 10 10 9 11 11 14 16 12 8 8 6 7 8 10 10 11 11 11 10 10 10 10 10 9 8 9 9 8 10 11 12 12 13 14 14 14
4 5 3 2 3 2 7 10 14 8 8 9 12 12 11 11 10 7 5 5 7 8 9 9 9 9 9 9 9 9 9 9 10 11 11 11 12 13 13 14 15 15 14 15
7 6 3 1 2 5 6 3 9 8 8 11 11 12 11 10 7 1 1 3 6 7 7 7 7 7 7 7 8 8 8 9 10 10 10 11 11 13 13 14 14 14 13 13
6 6 3 1 3 6 8 3 7 7 6 8 12 15 11 6 4 1 2 2 3 4 4 4 5 6 6 7 7 7 8 9 9 9 9 10 10 11 12 13 13 12 12 12
4 5 3 3 3 4 4 1 4 4 3 4 6 9 7 2 3 2 2 1 2 3 3 4 5 6 7 7 7 7 8 9 9 9 9 9 10 11 11 12 11 10 10 11
5 4 5 5 4 7 7 3 4 2 3 3 4 6 5 4 4 3 4 2 2 2 3 4 5 6 6 6 7 8 8 9 8 8 9 10 10 10 11 11 10 10 10 10
9 7 7 6 6 8 4 5 5 4 3 3 3 4 4 4 4 5 4 3 3 3 4 5 5 6 6 6 7 8 8 7 8 9 10 11 10 9 9 10 10 9 9 9
8 8 5 7 8 5 3 5 5 3 4 4 3 4 3 4 6 6 5 4 3 3 4 4 5 6 6 7 6 8 6 7 8 10 10 10 10 9 8 8 8 7 6 6
5 5 5 5 8 7 8 7 6 5 6 5 4 4 5 6 7 7 6 5 5 4 4 4 5 6 6 6 6 6 6 7 9 10 9 8 8 8 7 6 6 6 5 5
5 5 5 5 6 6 5 3 4 3 4 4 4 4 6 7 7 8 7 7 6 5 4 4 5 6 5 5 6 6 6 7 9 8 7 7 7 7 7 7 5 5 3 4
3 5 5 5 3 3 6 6 4 5 6 6 5 4 4 7 8 8 7 7 7 6 5 6 6 6 6 6 6 5 5 6 8 7 6 5 5 5 5 5 5 8 7 8
Wind_Direction
148 158 183 182 167 150 153 150 179 237 339 329 276 279 281 278 267 262 263 266 269 271 268 255 245 246 245 237 228 228 226 222 210 203 207 211 215 214 211 210 205 199 195 189
140 197 179 146 139 118 121 132 171 309 360 347 306 284 271 266 249 248 260 271 279 287 294 284 264 254 243 237 228 226 225 223 212 209 208 209 211 215 213 208 202 198 193 188
147 155 148 145 152 147 128 148 169 261 352 28 337 306 297 297 317 309 297 294 298 295 298 303 303 288 274 259 242 234 227 225 218 211 205 198 194 195 198 205 207 199 192 189
88 109 145 153 163 148 171 156 137 111 49 330 21 318 293 305 327 328 336 337 327 322 315 314 318 315 302 281 268 248 239 233 227 213 204 202 209 215 213 211 210 200 193 191
107 140 145 156 153 137 136 97 94 94 110 336 358 223 284 336 335 336 335 339 340 340 343 344 340 326 317 313 304 282 262 248 238 222 212 211 218 221 214 206 203 200 196 194
72 59 93 111 96 117 121 88 71 61 72 277 232 196 280 287 275 308 320 332 339 342 351 354 351 351 346 340 333 323 301 276 258 238 224 218 220 219 208 203 204 201 195 194
76 46 53 99 92 79 111 108 47 357 7 249 199 220 255 268 267 277 298 314 326 339 352 353 351 349 344 340 334 325 314 295 281 260 242 228 224 221 215 210 208 201 195 197
120 115 42 74 132 150 155 144 164 201 236 284 223 239 258 270 281 282 290 309 328 338 340 338 333 330 327 323 322 319 312 298 288 271 258 247 234 224 220 214 209 206 206 205
133 112 41 59 79 120 121 116 125 119 120 279 273 281 302 300 350 347 337 336 332 328 326 326 324 322 318 314 309 306 303 298 293 281 269 261 242 224 217 210 208 207 205 194
119 108 76 81 77 46 121 134 109 130 166 264 295 279 263 295 329 337 334 329 323 322 323 325 325 321 316 310 304 303 295 289 287 286 273 262 249 232 220 206 205 201 189 174
95 110 93 80 143 156 120 108 105 105 142 168 287 281 225 229 281 305 305 305 306 310 317 322 321 319 315 314 313 311 307 299 296 294 287 273 260 239 212 206 203 187 168 160
105 107 115 21 337 182 151 156 145 149 190 173 211 271 269 243 270 282 291 299 306 318 325 324 323 323 323 323 323 320 316 310 303 303 300 286 266 227 197 186 166 151 149 150
121 107 97 30 348 32 182 169 152 127 123 159 198 265 294 305 302 297 298 310 325 332 332 331 329 330 329 331 332 329 327 322 321 323 320 318 323 144 151 140 135 138 138 138
112 111 156 187 218 179 194 189 167 144 166 202 231 264 290 299 303 308 315 324 332 330 335 336 334 334 337 341 343 341 340 339 339 349 357 10 51 102 118 119 121 124 127 128
104 126 172 227 245 180 200 192 186 195 195 206 239 248 275 288 294 301 311 332 335 338 342 341 339 341 347 351 353 352 352 357 9 25 34 43 65 82 91 97 103 107 110 113
103 120 127 312 281 218 233 222 205 212 219 237 261 278 273 279 292 298 320 337 333 337 338 340 344 350 353 355 356 2 7 11 29 47 50 56 70 78 84 90 95 97 99 103
121 128 130 288 284 295 258 224 202 199 205 206 236 249 273 292 298 308 326 335 330 331 336 343 346 350 355 -0 6 13 18 27 43 53 57 62 74 80 84 89 92 94 97 99
132 133 145 265 342 260 245 209 181 198 227 216 235 257 272 279 297 314 81 330 330 334 342 347 347 356 5 11 18 25 34 43 51 58 63 70 78 84 87 90 92 95 96 97
141 140 153 219 274 282 292 227 168 183 255 225 232 257 272 299 324 304 91 29 342 339 350 353 356 6 14 21 26 37 45 50 55 59 66 73 83 88 90 91 92 94 97 96
121 118 155 209 250 259 260 300 166 137 273 245 217 254 275 322 308 275 130 68 21 12 14 16 13 21 27 28 34 47 49 52 54 59 66 72 79 84 86 87 88 89 91 92
160 170 204 221 243 266 252 232 142 168 237 281 243 258 257 220 220 146 135 117 79 45 42 41 36 33 30 34 47 55 52 49 52 62 69 72 74 79 82 83 83 87 89 90
180 188 194 192 215 251 236 148 178 226 263 278 267 257 244 214 146 140 142 132 111 80 62 56 53 43 37 42 58 64 55 53 62 68 69 67 68 72 78 83 82 85 94 97
194 195 189 201 219 239 216 216 241 222 255 261 244 247 220 192 179 166 157 146 129 107 86 75 74 63 49 47 61 71 60 65 74 74 72 72 71 68 72 82 87 82 81 90
233 192 194 241 259 259 264 267 266 234 232 242 236 236 200 196 181 168 160 155 143 126 105 95 90 81 66 58 65 71 75 79 83 80 74 72 74 70 62 66 73 81 84 88
221 177 198 242 275 303 297 270 268 260 241 243 239 216 206 192 182 171 165 160 151 139 124 113 110 104 95 83 75 72 81 93 91 84 79 75 74 76 71 70 75 87 88 114
205 181 186 225 244 248 277 294 299 275 264 248 230 221 202 193 181 166 161 156 150 144 136 127 123 120 113 103 92 84 91 102 104 95 85 82 81 80 81 81 73 79 90 88
Height
1465 1471 1473 1476 1479 1482 1487 1491 1493 1492 1490 1490 1489 1488 1482 1477 1478 1477 1475 1474 1473 1473 1475 1478 1479 1480 1481 1482 1483 1484 1486 1488 1490 1491 1492 1494 1496 1499 1501 1504 1507 1509 1511 1513
1467 1469 1470 1474 1478 1482 1486 1491 1492 1492 1491 1491 1491 1487 1477 1471 1471 1470 1470 1469 1469 1468 1469 1470 1472 1473 1474 1475 1476 1477 1479 1481 1482 1484 1485 1487 1489 1491 1494 1497 1500 1503 1505 1507
1462 1466 1468 1473 1478 1482 1486 1490 1492 1492 1493 1494 1494 1484 1476 1468 1468 1468 1467 1467 1466 1466 1464 1464 1465 1465 1466 1467 1468 1470 1472 1474 1475 1477 1479 1480 1482 1483 1486 1489 1492 1495 1498 1501
1465 1467 1468 1473 1477 1480 1486 1488 1490 1493 1497 1501 1500 1498 1479 1472 1470 1467 1466 1465 1464 1463 1462 1462 1461 1461 1461 1461 1462 1463 1465 1467 1469 1470 1471 1472 1473 1474 1476 1481 1484 1487 1490 1493
1467 1468 1470 1473 1477 1480 1487 1489 1493 1497 1500 1504 1505 1503 1483 1477 1471 1468 1467 1465 1463 1462 1461 1460 1459 1459 1459 1458 1458 1458 1459 1460 1462 1464 1465 1465 1466 1467 1470 1473 1476 1479 1481 1485
1469 1470 1471 1474 1478 1481 1487 1493 1500 1505 1506 1507 1504 1507 1490 1479 1473 1471 1467 1464 1462 1460 1459 1458 1457 1456 1456 1455 1455 1455 1455 1455 1456 1457 1458 1458 1459 1460 1462 1464 1467 1470 1473 1476
1473 1474 1474 1476 1481 1485 1487 1494 1503 1505 1514 1509 1506 1507 1491 1475 1472 1471 1468 1464 1462 1460 1458 1456 1455 1453 1452 1451 1451 1450 1450 1450 1451 1451 1451 1451 1452 1453 1454 1455 1458 1461 1463 1466
1475 1480 1478 1478 1480 1485 1488 1490 1499 1500 1503 1507 1507 1504 1484 1473 1469 1467 1466 1464 1462 1460 1458 1456 1454 1452 1450 1448 1446 1445 1445 1444 1445 1445 1445 1445 1445 1446 1446 1448 1450 1453 1455 1458
1476 1482 1481 1480 1481 1484 1490 1496 1497 1508 1514 1512 1502 1496 1482 1469 1467 1466 1465 1463 1461 1459 1457 1454 1451 1449 1446 1443 1441 1440 1438 1438 1438 1438 1438 1438 1438 1439 1440 1441 1443 1445 1448 1451
1472 1483 1483 1482 1483 1487 1489 1495 1503 1508 1507 1499 1496 1495 1485 1471 1467 1466 1464 1462 1460 1458 1455 1451 1448 1444 1441 1438 1435 1434 1432 1431 1431 1431 1431 1431 1432 1433 1434 1435 1436 1438 1441 1443
1472 1482 1486 1485 1486 1489 1492 1496 1502 1508 1507 1506 1499 1486 1473 1471 1468 1468 1465 1462 1459 1456 1453 1449 1444 1440 1436 1433 1430 1427 1426 1425 1424 1424 1424 1425 1426 1427 1427 1429 1430 1432 1434 1437
1473 1482 1488 1488 1488 1487 1488 1493 1500 1506 1510 1511 1512 1493 1467 1468 1466 1465 1463 1460 1457 1454 1450 1445 1441 1436 1432 1428 1425 1422 1420 1419 1418 1418 1418 1419 1420 1421 1422 1423 1424 1426 1428 1431
1473 1483 1494 1493 1495 1491 1489 1491 1494 1500 1508 1515 1513 1489 1466 1465 1464 1461 1459 1456 1453 1450 1446 1442 1438 1434 1430 1426 1422 1419 1416 1414 1414 1413 1413 1413 1414 1415 1416 1417 1419 1421 1423 1426
1471 1481 1488 1491 1487 1488 1489 1490 1492 1497 1506 1507 1499 1485 1468 1463 1461 1457 1455 1453 1450 1447 1444 1439 1435 1432 1428 1424 1420 1417 1413 1411 1410 1409 1409 1409 1410 1410 1411 1413 1415 1417 1420 1423
1471 1481 1484 1484 1483 1484 1484 1485 1489 1491 1493 1495 1487 1482 1467 1461 1459 1456 1453 1451 1448 1445 1442 1438 1435 1431 1427 1423 1419 1416 1413 1410 1408 1406 1406 1405 1406 1407 1408 1410 1411 1414 1416 1419
1472 1480 1483 1484 1481 1483 1484 1481 1483 1484 1484 1483 1480 1474 1459 1456 1455 1453 1451 1449 1447 1444 1441 1438 1434 1430 1426 1423 1419 1416 1413 1409 1407 1405 1404 1404 1404 1405 1406 1407 1409 1411 1414 1417
1473 1479 1484 1485 1481 1479 1480 1471 1473 1475 1473 1473 1473 1466 1456 1455 1453 1451 1449 1448 1446 1443 1440 1437 1434 1430 1427 1424 1420 1417 1414 1411 1408 1406 1405 1404 1404 1405 1405 1407 1409 1411 1414 1417
1473 1478 1482 1480 1479 1482 1467 1459 1462 1465 1463 1463 1461 1457 1454 1453 1451 1449 1448 1447 1444 1442 1440 1437 1434 1431 1428 1425 1422 1419 1416 1413 1410 1408 1407 1407 1407 1407 1408 1409 1411 1414 1417 1421
1469 1474 1478 1477 1476 1472 1462 1456 1459 1461 1459 1456 1457 1454 1451 1450 1449 1447 1447 1445 1444 1442 1439 1437 1434 1432 1429 1426 1423 1421 1418 1416 1414 1412 1411 1411 1411 1411 1412 1414 1416 1419 1422 1425
1469 1471 1476 1474 1474 1471 1459 1453 1452 1456 1456 1451 1451 1450 1449 1449 1450 1448 1446 1445 1443 1441 1439 1437 1435 1433 1430 1428 1426 1424 1422 1420 1418 1417 1417 1417 1417 1417 1418 1420 1422 1425 1428 1431
1469 1471 1471 1470 1470 1465 1454 1451 1453 1458 1455 1449 1448 1447 1446 1446 1447 1446 1445 1444 1443 1441 1440 1438 1436 1434 1433 1431 1430 1428 1426 1425 1424 1424 1423 1423 1424 1424 1426 1427 1429 1432 1434 1435
1462 1463 1464 1465 1467 1464 1449 1450 1452 1450 1447 1446 1445 1444 1443 1443 1443 1443 1444 1443 1443 1442 1441 1439 1438 1437 1436 1435 1434 1433 1431 1431 1431 1431 1430 1430 1431 1432 1433 1434 1435 1437 1439 1440
1456 1456 1456 1457 1455 1447 1446 1446 1446 1445 1444 1443 1442 1441 1440 1440 1440 1441 1442 1442 1442 1442 1441 1441 1440 1440 1439 1439 1438 1437 1437 1437 1437 1437 1437 1437 1437 1438 1439 1440 1441 1442 1443 1444
1451 1450 1452 1452 1447 1444 1444 1443 1442 1442 1441 1441 1439 1438 1437 1437 1438 1439 1440 1441 1442 1442 1442 1442 1442 1442 1442 1442 1442 1442 1442 1442 1442 1442 1442 1442 1443 1443 1444 1444 1445 1445 1446 1446
1446 1447 1448 1447 1444 1442 1440 1440 1440 1440 1439 1438 1437 1436 1435 1435 1435 1436 1437 1439 1440 1442 1442 1443 1444 1444 1445 1445 1445 1446 1446 1447 1447 1446 1446 1446 1447 1447 1447 1447 1447 1447 1447 1447
1443 1444 1445 1444 1441 1442 1439 1438 1438 1437 1436 1435 1434 1432 1432 1432 1432 1433 1435 1437 1439 1440 1442 1443 1444 1445 1446 1447 1448 1448 1449 1449 1450 1449 1449 1449 1449 1449 1449 1449 1448 1448 1447 1446